Погода в Киренске

Хотите узнать прогноз погоды в Киренске? Тогда Вам сюда: Погода в Киренске

Поиск расширенной информации на нашем сайте:

Полезная информация:

Новости сайта



02.01.2020
Опубликован Долгосрочный прогноз погоды по городам России и ближнего зарубежья на январь 2020 года.
Карты: Прогноз на январь и февраль 2020 года, Сравнение прогнозируемой аномалии приземной температуры воздуха на январь 2020 года по разным моделям.




Погода в Киренске - сегодня

Время (UTC), дата Ветер
(°,м/с) 
Видим.   Явления Облачность Т
(°С)
Тd
(°С)
f(%) Тe
(°С)
Pmin
(гПа)
dP
(гПа)
Po
(мм)
O2
(г/м3)
Тmin Tmax R s Состояние
почвы
00 30.11.20 тихо ()   н/о  слаб. ливневой снег  10/4 600 м кучево-дожд., средняя 
[Cb cap|Ac As]
-20.9 -23.7 78 -21  1039  -0.4  752  330  -23.6    0.3  27  неравномерный
сухой снег
100% 
03 30.11.20 тихо ()   20000 м  слаб. снег{ливн. осадки}  10/4 600 м кучево-дожд., средняя, верхняя 
[Cb cap|Ac trans|Ci fib]
-18.8 -21.4 80 -19  1038.7  752  327           
06 30.11.20 200 (Ю) 20000 м  слаб. снег{ливн. осадки}  10/4 600 м кучево-дожд., средняя, верхняя 
[Cb cap|Ac trans|Ci fib]
-13.1 -16.2 77 -17  1036.7  -1.1  752  320           
09 30.11.20 200 (Ю) 4000 м  слаб. снег  10/8 600 м средняя 
[Sc|Ac As]
-12.9 -15.7 80 -15  1036.8  0.1  752  319           
12 30.11.20 210 (ЮЗ) н/о  слаб. ливневой снег  10/8 600 м кучево-дожд., средняя 
[Cb cap|Ac As]
-12.5 -15.4 79 -16  1037  0.3  752  319    -12.5  0.8     
15 30.11.20 200 (Ю) н/о  слаб. ливневой снег  10/8 600 м кучево-дожд., средняя 
[Cb cap|Ac As]
-12.6 -15.5 79 -17  1036.9  -0.1  752  319           
18 30.11.20 200 (Ю) н/о  слаб. ливневой снег  10/8 600 м кучево-дожд., средняя 
[Cb cap|Ac As]
-12.4 -15.4 78 -16  1036.9  -0.1  752  319           
21 30.11.20 210 (ЮЗ) н/о  слаб. ливневой снег  10/8 600 м кучево-дожд., средняя 
[Cb cap|Ac As]
-12.2 -15.1 79 -16  1036.2  -0.6  751  318           
00 01.12.20 200 (Ю) н/о  слаб. ливневой снег  10/8 600 м кучево-дожд., средняя 
[Cb cap|Ac As]
-11.9 -14.8 79 -14  1036  -0.1  751  318  -13.1    0.9  24  неравномерный
сухой снег
100% 
03 01.12.20 190 (Ю) 4000 м  слаб. ливневой снег  10/10 600 м кучево-дожд. 
[Cb cap]
-11.4 -14.5 78 -15  1035.9  -0.1  751  317           
06 01.12.20 190 (Ю) 10 км  слаб. ливневой снег  10/6 600 м кучево-дожд., средняя 
[Cb cap|Ac As]
-10.9 -14 78 -14  1035.2  -0.5  751  316           
09 01.12.20 200 (Ю) 10 км  слаб. ливневой снег  10/6 600 м кучево-дожд., средняя 
[Cb cap|Ac As]
-10.9 -13.7 80 -14  1035.1  -0.1  751  316           
12 01.12.20 200 (Ю) н/о  слаб. ливневой снег  10/8 600 м кучево-дожд., средняя 
[Cb cap|Ac As]
-10.8 -13.4 81 -14  1035.6  0.4  751  316    -10.7  0.6     
15 01.12.20 210 (ЮЗ) н/о  слаб. ливневой снег  10/8 600 м кучево-дожд., средняя 
[Cb cap|Ac As]
-11.5 -14.5 78 -15  1035.8  0.2  751  317           
18 01.12.20 210 (ЮЗ) н/о  слаб. ливневой снег  10/10 600 м кучево-дожд. 
[Cb cap]
-11.6 -14.1 82 -15  1036.9  752  318           
21 01.12.20 200 (Ю) н/о  слаб. ливневой снег  10/10 600 м кучево-дожд. 
[Cb cap]
-11.6 -14.4 80 -15  1037.7  0.8  753  318           
00 02.12.20 200 (Ю) н/о  слаб. ливневой снег  10/10 600 м кучево-дожд. 
[Cb cap]
-11.5 -14.4 79 -15  1038.6  0.9  753  318  -11.6    27  неравномерный
сухой снег
100% 
03 02.12.20 200 (Ю) 2000 м  слаб. ливневой снег  10/10 600 м кучево-дожд. 
[Cb cap]
-11 -14 78 -15  1039  0.4  754  318           
06 02.12.20 200 (Ю) 2000 м  слаб. ливневой снег  10/10 600 м кучево-дожд. 
[Cb cap]
-10.1 -13.2 78 -14  1038.6  -0.3  753  316           
09 02.12.20 220 (ЮЗ) 10 км  слаб. ливневой снег  10/6 600 м кучево-дожд., средняя, верхняя 
[Cb cap|Ac trans|Ci fib]
-10.3 -14.1 74 -14  1038.7  0.1  753  317           
12 02.12.20 210 (ЮЗ) н/о  слаб. ливневой снег  10/6 600 м кучево-дожд., средняя, верхняя 
[Cb cap|Ac trans|Ci fib]
-10.6 -14.2 75 -14  1039.4  0.6  754  317    -9.8  0.4     
15 02.12.20 210 (ЮЗ) н/о  слаб. ливневой снег  10/6 600 м кучево-дожд., средняя 
[Cb cap|Ac As]
-10.9 -14.8 73 -15  1038.5  -0.9  753  317           
18 02.12.20 210 (ЮЗ) н/о  слаб. ливневой снег  10/10 600 м кучево-дожд. 
[Cb cap|Ac As]
-11.2 -15.2 72 -16  1037.4  -1.1  752  317           
21 02.12.20 220 (ЮЗ) н/о  слаб. ливневой снег  10/8 600 м кучево-дожд., средняя 
[Cb cap|Ac As]
-11.2 -15.5 70 -15  1036.3  -1  752  317           
00 03.12.20 200 (Ю) н/о  слаб. ливневой снег  10/10 600 м кучево-дожд. 
[Cb cap]
-11.2 -14.1 79 -15  1035.3  -1.1  751  317  -11.4    0.9  27  неравномерный
сухой снег
100% 
Время (UTC), дата Ветер
(°,м/с) 
Видим.   Явления Облачность Т
(°С)
Тd
(°С)
f(%) Тe
(°С)
Pmin
(гПа)
dP
(гПа)
Po
(мм)
O2
(г/м3)
Тmin Tmax R s Состояние
почвы

Для получения пояснительной информации подведите курсор к названию столбца.

ПОГОДА в Киренске - архив

Всё, что Вы хотите узнать о погоде в Киренске - удобно и подробно!

Выберите нужную дату (начиная с 1 января 2019* года) и нажмите кнопку "Найти".
Будут отображены архивные сводки погоды по пункту Киренск, начиная с указанной даты.


Отображать данные в формате CSV (для использования в таблицах Excel)


Внимание! Наш архив погоды предназначен исключительно для личного некоммерческого использования в познавательных целях. Если Вам необходимы официальные справки о состоянии погоды (для производственных, юридических, коммерческих и т.п. целей), обращайтесь в органы Росгидромета.

*Примечание: данная дата относится к архиву по метеостанциям СССР (Россия, СНГ, Балтия).
Архив по метеостанциям Зарубежной Европы и Азии (кроме Китая) хранится 10 дней, по другим регионам земного шара (Китай, Африка, Америка, Австралия, Океания) - 1 день.

Киренск - район местоположения метеостанции


Название, широта, долгота, высота метеостанции:
Киренск 57.8°ш. 108.1°д. 259 м над ур. моря [Российская Федерация]

Дополнительная информация

В oтличие oт бoльшинства пoгoдных сайтoв мы публикуем пoдрoбную метеoинфoрмацию в детальнoм прoфессиoнальнoм фoрмате.

Характеристики температуры и влажнoсти вoздуха измеряются на высoте 2 м в тени вдали oт зданий и деревьев.
Скoрoсть ветра измеряется на высoте 10 м (на урoвне рoста челoвека скoрoсть ветра ниже в 1.5-2 раза). Если метеoстанция нахoдится в гoрoде или в лесу, тo скoрoсть ветра занижена на 2-4 м/с пo сравнению с oткрытым местoм. Скoрoсть ветра над акватoриями крупных рек и oзёр, а также на вершинах хoлмoв на 2-5 м/с выше, чем в oбычных услoвиях.
Атмoсфернoе давление в разных тoчках местнoсти мoжет значительнo oтличаться oт давления на метеoстанции, в зависимoсти oт услoвий рельефа (при пoдъёме на 10 м давление пoнижается примернo на 1 мм рт.ст.).